START_TIME,STEP,MOV.,M29,t_acc.,H22,t_acc.,H26,t_acc.,H30,t_acc.
1981-08-26 15:00:32.770 ,0,0,0.,24.0,0.,24.0,0.,24.0,0.,24.0
1981-08-26 15:00:56.770 ,0,1,0.,24.0,0.,24.0,0.,24.0,0.,24.0
1981-08-26 15:01:20.770 ,0,0,0.,24.0,0.,24.0,0.,24.0,0.,24.0
1981-08-26 15:01:44.770 ,1,1,0.,24.0,0.,24.0,0.,24.0,0.,24.0
1981-08-26 15:02:08.770 ,1,0,0.,24.0,0.,24.0,0.,24.0,0.,24.0
1981-08-26 15:02:32.770 ,2,1,0.,24.0,0.,24.0,0.,24.0,0.,24.0
1981-08-26 15:02:56.770 ,2,0,0.,24.0,0.,24.0,0.,24.0,0.,24.0
1981-08-26 15:03:20.770 ,3,1,0.,24.0,0.,24.0,0.,24.0,0.,24.0
1981-08-26 15:03:44.770 ,3,0,0.,24.0,0.,24.0,0.,24.0,0.,24.0
1981-08-26 15:04:08.770 ,4,1,0.,24.0,0.,24.0,0.,24.0,0.,24.0
1981-08-26 15:04:32.770 ,4,0,0.,24.0,0.,24.0,0.,24.0,0.,24.0
1981-08-26 15:04:56.770 ,5,1,0.,24.0,0.,24.0,0.,24.0,0.,24.0
1981-08-26 15:05:20.770 ,5,0,0.,24.0,0.,24.0,0.,24.0,0.,24.0
1981-08-26 15:05:44.770 ,6,1,0.,24.0,0.,24.0,0.,24.0,0.,24.0
1981-08-26 15:06:08.770 ,6,0,0.,24.0,0.,24.0,0.,24.0,0.,24.0
1981-08-26 15:06:32.770 ,7,1,0.,24.0,0.,24.0,0.,24.0,0.,24.0
1981-08-26 15:06:56.770 ,7,0,0.,24.0,0.,24.0,0.,24.0,0.,24.0
1981-08-26 15:07:20.770 ,7,1,0.,24.0,0.,24.0,0.,24.0,0.,24.0
1981-08-26 15:07:44.770 ,7,0,0.,24.0,0.,24.0,0.,24.0,0.,24.0
1981-08-26 15:08:08.770 ,6,1,0.,24.0,0.,24.0,0.,24.0,0.,24.0
1981-08-26 15:08:32.770 ,6,0,0.,24.0,0.,24.0,0.,24.0,0.,24.0
1981-08-26 15:08:56.770 ,5,1,0.,24.0,0.,24.0,0.,24.0,0.,24.0
1981-08-26 15:09:20.770 ,5,0,0.,24.0,0.,24.0,0.,24.0,0.,24.0
1981-08-26 15:09:44.770 ,4,1,0.,24.0,0.,24.0,0.,24.0,0.,24.0
1981-08-26 15:10:08.770 ,4,0,0.,24.0,0.,24.0,0.,24.0,0.,24.0
1981-08-26 15:10:32.770 ,3,1,0.,24.0,0.,24.0,0.,24.0,0.,24.0
1981-08-26 15:10:56.770 ,3,0,0.,24.0,0.,24.0,0.,24.0,0.,24.0
1981-08-26 15:11:20.770 ,2,1,0.,24.0,0.,24.0,0.,24.0,0.,24.0
1981-08-26 15:11:44.770 ,2,0,0.,24.0,0.,24.0,0.,24.0,0.,24.0
1981-08-26 15:12:08.770 ,1,1,0.,24.0,0.,24.0,0.,24.0,0.,24.0
1981-08-26 15:12:32.770 ,1,0,0.,24.0,0.,24.0,0.,24.0,0.,24.0
1981-08-26 15:12:56.770 ,0,1,0.,24.0,0.,24.0,0.,24.0,0.,24.0
1981-08-26 15:13:20.770 ,0,0,0.,24.0,0.,24.0,0.,24.0,0.,24.0
1981-08-26 15:13:44.770 ,0,1,0.,24.0,0.,24.0,0.,24.0,0.,24.0
1981-08-26 15:14:08.770 ,0,0,0.,24.0,0.,24.0,0.,24.0,0.,24.0
1981-08-26 15:14:32.770 ,1,1,0.,24.0,0.,24.0,0.,24.0,0.,24.0
1981-08-26 15:14:56.770 ,1,0,0.,24.0,0.,24.0,0.,24.0,0.,24.0
1981-08-26 15:15:20.770 ,2,1,0.,24.0,0.,24.0,0.,24.0,0.,24.0
1981-08-26 15:15:44.770 ,2,0,0.,24.0,0.,24.0,0.,24.0,0.,24.0
1981-08-26 15:16:08.770 ,3,1,0.,24.0,0.,24.0,0.,24.0,0.,24.0
1981-08-26 15:16:32.770 ,3,0,0.,24.0,0.,24.0,0.,24.0,0.,24.0
1981-08-26 15:16:56.770 ,4,1,0.,24.0,0.,24.0,0.,24.0,0.,24.0
1981-08-26 15:17:20.770 ,4,0,0.,24.0,0.,24.0,0.,24.0,0.,24.0
1981-08-26 15:17:44.770 ,5,1,0.,24.0,0.,24.0,0.,24.0,0.,24.0
1981-08-26 15:18:08.770 ,5,0,0.,24.0,0.,24.0,0.,24.0,0.,24.0
1981-08-26 15:18:32.770 ,6,1,0.,24.0,0.,24.0,0.,24.0,0.,24.0
1981-08-26 15:18:56.770 ,6,0,0.,24.0,0.,24.0,0.,24.0,0.,24.0
1981-08-26 15:19:20.770 ,7,1,0.,24.0,0.,24.0,0.,24.0,0.,24.0
1981-08-26 15:19:44.770 ,7,0,0.,24.0,0.,24.0,0.,24.0,0.,24.0
1981-08-26 15:20:08.770 ,7,1,0.,24.0,0.,24.0,0.,24.0,0.,24.0
1981-08-26 15:20:32.770 ,7,0,0.,24.0,0.,24.0,0.,24.0,0.,24.0
1981-08-26 15:20:56.770 ,6,1,0.,24.0,0.,24.0,0.,24.0,0.,24.0
1981-08-26 15:21:20.770 ,6,0,0.,24.0,0.,24.0,0.,24.0,0.,24.0
1981-08-26 15:21:44.770 ,5,1,0.,24.0,0.,24.0,0.,24.0,0.,24.0
1981-08-26 15:22:08.770 ,5,0,0.,24.0,0.,24.0,0.,24.0,0.,24.0
1981-08-26 15:22:32.770 ,4,1,0.,24.0,0.,24.0,0.,24.0,0.,24.0
1981-08-26 15:22:56.770 ,4,0,0.,24.0,0.,24.0,0.,24.0,0.,24.0
1981-08-26 15:23:20.770 ,3,1,0.,24.0,0.,24.0,0.,24.0,0.,24.0
1981-08-26 15:23:44.770 ,3,0,0.,24.0,0.,24.0,0.,24.0,0.,24.0
1981-08-26 15:24:08.770 ,2,1,0.,24.0,0.,24.0,0.,24.0,0.,24.0
1981-08-26 15:24:32.770 ,2,0,0.,24.0,0.,24.0,0.,24.0,0.,24.0
1981-08-26 15:24:56.770 ,1,1,0.,24.0,0.,24.0,0.,24.0,0.,24.0
1981-08-26 15:25:20.770 ,1,0,0.,24.0,0.,24.0,0.,24.0,0.,24.0
1981-08-26 15:25:44.770 ,0,1,0.,24.0,0.,24.0,0.,24.0,0.,24.0
1981-08-26 15:26:08.770 ,0,0,0.,24.0,0.,24.0,0.,24.0,0.,24.0
1981-08-26 15:26:32.770 ,0,1,0.,24.0,0.,24.0,0.,24.0,0.,24.0
1981-08-26 15:26:56.770 ,0,0,0.,24.0,0.,24.0,0.,24.0,0.,24.0
1981-08-26 15:27:20.770 ,1,1,0.,24.0,0.,24.0,0.,24.0,0.,24.0
1981-08-26 15:27:44.770 ,1,0,0.,24.0,0.,24.0,0.,24.0,0.,24.0
1981-08-26 15:28:08.770 ,2,1,0.,24.0,0.,24.0,0.,24.0,0.,24.0
1981-08-26 15:28:32.770 ,2,0,0.,24.0,0.,24.0,0.,24.0,0.,24.0
1981-08-26 15:28:56.770 ,3,1,0.,24.0,0.,24.0,0.,24.0,0.,24.0
1981-08-26 15:29:20.770 ,3,0,0.,24.0,0.,24.0,0.,24.0,0.,24.0
1981-08-26 15:29:44.770 ,4,1,0.,24.0,0.,24.0,0.,24.0,0.,24.0
1981-08-26 15:30:08.770 ,4,0,0.,24.0,0.,24.0,0.,24.0,0.,24.0
1981-08-26 15:30:32.770 ,5,1,0.,24.0,0.,24.0,0.,24.0,0.,24.0
1981-08-26 15:30:56.770 ,5,0,0.,24.0,0.,24.0,0.,24.0,0.,24.0
1981-08-26 15:31:20.770 ,6,1,0.,24.0,0.,24.0,0.,24.0,0.,24.0
1981-08-26 15:31:44.770 ,6,0,0.,24.0,0.,24.0,0.,24.0,0.,24.0
1981-08-26 15:32:08.770 ,7,1,0.,24.0,0.,24.0,0.,24.0,0.,24.0
1981-08-26 15:32:32.770 ,7,0,0.,24.0,0.,24.0,0.,24.0,0.,24.0
1981-08-26 15:32:56.770 ,7,1,0.,24.0,0.,24.0,0.,24.0,0.,24.0
1981-08-26 15:33:20.770 ,7,0,0.,24.0,0.,24.0,0.,24.0,0.,24.0
1981-08-26 15:33:44.770 ,6,1,0.,24.0,0.,24.0,0.,24.0,0.,24.0
1981-08-26 15:34:08.770 ,6,0,0.,24.0,0.,24.0,0.,24.0,0.,24.0
1981-08-26 15:34:32.770 ,5,1,0.,24.0,0.,24.0,0.,24.0,0.,24.0
1981-08-26 15:34:56.770 ,5,0,0.,24.0,0.,24.0,0.,24.0,0.,24.0
1981-08-26 15:35:20.770 ,4,1,0.,24.0,0.,24.0,0.,24.0,0.,24.0
1981-08-26 15:35:44.770 ,4,0,0.,24.0,0.,24.0,0.,24.0,0.,24.0
1981-08-26 15:36:08.770 ,3,1,0.,24.0,0.,24.0,0.,24.0,0.,24.0
1981-08-26 15:36:32.770 ,3,0,0.,24.0,0.,24.0,0.,24.0,0.,24.0
1981-08-26 15:36:56.770 ,2,1,0.,24.0,0.,24.0,0.,24.0,0.,24.0
1981-08-26 15:37:20.770 ,2,0,0.,24.0,0.,24.0,0.,24.0,0.,24.0
1981-08-26 15:37:44.770 ,1,1,0.,24.0,0.,24.0,0.,24.0,0.,24.0
1981-08-26 15:38:08.770 ,1,0,0.,24.0,0.,24.0,0.,24.0,0.,24.0
1981-08-26 15:38:32.770 ,0,1,0.,24.0,0.,24.0,0.,24.0,0.,24.0
1981-08-26 15:38:56.770 ,0,0,0.,24.0,0.,24.0,0.,24.0,0.,24.0
1981-08-26 15:39:20.770 ,0,1,0.,24.0,0.,24.0,0.,24.0,0.,24.0
1981-08-26 15:39:44.770 ,0,0,0.,24.0,0.,24.0,0.,24.0,0.,24.0
1981-08-26 15:40:08.770 ,1,1,0.,24.0,0.,24.0,0.,24.0,0.,24.0
1981-08-26 15:40:32.770 ,1,0,0.,24.0,0.,24.0,0.,24.0,0.,24.0
1981-08-26 15:40:56.770 ,2,1,0.,24.0,0.,24.0,0.,24.0,0.,24.0
1981-08-26 15:41:20.770 ,2,0,0.,24.0,0.,24.0,0.,24.0,0.,24.0
1981-08-26 15:41:44.770 ,3,1,0.,24.0,0.,24.0,0.,24.0,0.,24.0
1981-08-26 15:42:08.770 ,3,0,0.,24.0,0.,24.0,0.,24.0,0.,24.0
1981-08-26 15:42:32.770 ,4,1,0.,24.0,0.,24.0,0.,24.0,0.,24.0
1981-08-26 15:42:56.770 ,4,0,0.,24.0,0.,24.0,0.,24.0,0.,24.0
1981-08-26 15:43:20.770 ,5,1,0.,24.0,0.,24.0,0.,24.0,0.,24.0
1981-08-26 15:43:44.770 ,5,0,0.,24.0,0.,24.0,0.,24.0,0.,24.0
1981-08-26 15:44:08.770 ,6,1,0.,24.0,0.,24.0,0.,24.0,0.,24.0
1981-08-26 15:44:32.770 ,6,0,0.,24.0,0.,24.0,0.,24.0,0.,24.0
1981-08-26 15:44:56.770 ,7,1,0.,24.0,0.,24.0,0.,24.0,0.,24.0
1981-08-26 15:45:20.770 ,7,0,0.,24.0,0.,24.0,0.,24.0,0.,24.0
1981-08-26 15:45:44.770 ,7,1,0.,24.0,0.,24.0,0.,24.0,0.,24.0
1981-08-26 15:46:08.770 ,7,0,0.,24.0,0.,24.0,0.,24.0,0.,24.0
1981-08-26 15:46:32.770 ,6,1,0.,24.0,0.,24.0,0.,24.0,0.,24.0
1981-08-26 15:46:56.770 ,6,0,0.,24.0,0.,24.0,0.,24.0,0.,24.0
1981-08-26 15:47:20.770 ,5,1,0.,24.0,0.,24.0,0.,24.0,0.,24.0
1981-08-26 15:47:44.770 ,5,0,0.,24.0,0.,24.0,0.,24.0,0.,24.0
1981-08-26 15:48:08.770 ,4,1,0.,24.0,0.,24.0,0.,24.0,0.,24.0
1981-08-26 15:48:32.770 ,4,0,0.,24.0,0.,24.0,0.,24.0,0.,24.0
1981-08-26 15:48:56.770 ,3,1,0.,24.0,0.,24.0,0.,24.0,0.,24.0
1981-08-26 15:49:20.770 ,3,0,0.,24.0,0.,24.0,0.,24.0,0.,24.0
1981-08-26 15:49:44.770 ,2,1,0.,24.0,0.,24.0,0.,24.0,0.,24.0
1981-08-26 15:50:08.770 ,2,0,0.,24.0,0.,24.0,0.,24.0,0.,24.0
1981-08-26 15:51:20.770 ,0,0,0.,24.0,0.,24.0,0.,24.0,0.,24.0
1981-08-26 15:51:44.770 ,0,0,0.,24.0,0.,24.0,0.,24.0,0.,24.0
1981-08-26 15:52:08.770 ,0,1,0.,24.0,0.,24.0,0.,24.0,0.,24.0
1981-08-26 15:52:32.770 ,0,0,0.,24.0,0.,24.0,0.,24.0,0.,24.0
1981-08-26 15:52:56.770 ,1,1,0.,24.0,0.,24.0,0.,24.0,0.,24.0
1981-08-26 15:53:20.770 ,1,0,0.,24.0,0.,24.0,0.,24.0,0.,24.0
1981-08-26 15:53:44.770 ,2,1,0.,24.0,0.,24.0,0.,24.0,0.,24.0
1981-08-26 15:54:08.770 ,2,0,0.,24.0,0.,24.0,0.,24.0,0.,24.0
1981-08-26 15:54:32.770 ,3,1,0.,24.0,0.,24.0,0.,24.0,0.,24.0
1981-08-26 15:54:56.770 ,3,0,0.,24.0,0.,24.0,0.,24.0,0.,24.0
1981-08-26 15:56:08.770 ,0,0,0.,24.0,0.,24.0,0.,24.0,0.,24.0
1981-08-26 15:56:32.770 ,0,0,0.,24.0,0.,24.0,0.,24.0,0.,24.0
1981-08-26 15:56:56.770 ,6,1,0.,24.0,0.,24.0,0.,24.0,0.,24.0
1981-08-26 15:57:20.770 ,6,0,0.,24.0,0.,24.0,0.,24.0,0.,24.0
1981-08-26 15:57:44.770 ,7,1,0.,24.0,0.,24.0,0.,24.0,0.,24.0
1981-08-26 15:58:08.770 ,7,0,0.,24.0,0.,24.0,0.,24.0,0.,24.0
1981-08-26 15:58:32.770 ,7,1,0.,24.0,0.,24.0,0.,24.0,0.,24.0
1981-08-26 15:58:56.770 ,7,0,0.,24.0,0.,24.0,0.,24.0,0.,24.0
1981-08-26 15:59:20.770 ,6,1,0.,24.0,0.,24.0,0.,24.0,0.,24.0
1981-08-26 15:59:44.770 ,6,0,0.,24.0,0.,24.0,0.,24.0,0.,24.0
1981-08-26 16:00:08.770 ,5,1,0.,24.0,0.,24.0,0.,24.0,0.,24.0
1981-08-26 16:00:32.770 ,5,0,0.,24.0,0.,24.0,0.,24.0,0.,24.0
1981-08-26 16:00:56.770 ,4,1,0.,24.0,0.,24.0,0.,24.0,0.,24.0
1981-08-26 16:01:20.770 ,4,0,0.,24.0,0.,24.0,0.,24.0,0.,24.0
1981-08-26 16:01:44.770 ,3,1,0.,24.0,0.,24.0,0.,24.0,0.,24.0
1981-08-26 16:02:08.770 ,3,0,0.,24.0,0.,24.0,0.,24.0,0.,24.0
1981-08-26 16:02:32.770 ,2,1,0.,24.0,0.,24.0,0.,24.0,0.,24.0
1981-08-26 16:02:56.770 ,2,0,0.,24.0,0.,24.0,0.,24.0,0.,24.0
1981-08-26 16:03:20.770 ,1,1,0.,24.0,0.,24.0,0.,24.0,0.,24.0
1981-08-26 16:03:44.770 ,1,0,0.,24.0,0.,24.0,0.,24.0,0.,24.0
1981-08-26 16:04:08.770 ,0,1,0.,24.0,0.,24.0,0.,24.0,0.,24.0
1981-08-26 16:04:32.770 ,0,0,0.,24.0,0.,24.0,0.,24.0,0.,24.0
1981-08-26 16:04:56.770 ,0,1,0.,24.0,0.,24.0,0.,24.0,0.,24.0
1981-08-26 16:05:20.770 ,0,0,0.,24.0,0.,24.0,0.,24.0,0.,24.0
1981-08-26 16:05:44.770 ,1,1,0.,24.0,0.,24.0,0.,24.0,0.,24.0
1981-08-26 16:06:08.770 ,1,0,0.,24.0,0.,24.0,0.,24.0,0.,24.0
1981-08-26 16:06:32.770 ,2,1,0.,24.0,0.,24.0,0.,24.0,0.,24.0
1981-08-26 16:06:56.770 ,2,0,0.,24.0,0.,24.0,0.,24.0,0.,24.0
1981-08-26 16:07:20.770 ,3,1,0.,24.0,0.,24.0,0.,24.0,0.,24.0
1981-08-26 16:07:44.770 ,3,0,0.,24.0,0.,24.0,0.,24.0,0.,24.0
1981-08-26 16:08:08.770 ,4,1,0.,24.0,0.,24.0,0.,24.0,0.,24.0
1981-08-26 16:08:32.770 ,4,0,0.,24.0,0.,24.0,0.,24.0,0.,24.0
1981-08-26 16:08:56.770 ,5,1,0.,24.0,0.,24.0,0.,24.0,0.,24.0
1981-08-26 16:09:20.770 ,5,0,0.,24.0,0.,24.0,0.,24.0,0.,24.0
1981-08-26 16:09:44.770 ,6,1,0.,24.0,0.,24.0,0.,24.0,0.,24.0
1981-08-26 16:10:08.770 ,6,0,0.,24.0,0.,24.0,0.,24.0,0.,24.0
1981-08-26 16:10:32.770 ,7,1,0.,24.0,0.,24.0,0.,24.0,0.,24.0
1981-08-26 16:10:56.770 ,7,0,0.,24.0,0.,24.0,0.,24.0,0.,24.0
1981-08-26 16:11:20.770 ,7,1,0.,24.0,0.,24.0,0.,24.0,0.,24.0
1981-08-26 16:11:44.770 ,7,0,0.,24.0,0.,24.0,0.,24.0,0.,24.0
1981-08-26 16:12:08.770 ,6,1,0.,24.0,0.,24.0,0.,24.0,0.,24.0
1981-08-26 16:12:32.770 ,6,0,0.,24.0,0.,24.0,0.,24.0,0.,24.0
1981-08-26 16:12:56.770 ,5,1,0.,24.0,0.,24.0,0.,24.0,0.,24.0
1981-08-26 16:13:20.770 ,5,0,0.,24.0,0.,24.0,0.,24.0,0.,24.0
1981-08-26 16:13:44.770 ,4,1,0.,24.0,0.,24.0,0.,24.0,0.,24.0
1981-08-26 16:14:08.770 ,4,0,0.,24.0,0.,24.0,0.,24.0,0.,24.0
1981-08-26 16:14:32.770 ,3,1,0.,24.0,0.,24.0,0.,24.0,0.,24.0
1981-08-26 16:14:56.770 ,3,0,0.,24.0,0.,24.0,0.,24.0,0.,24.0
1981-08-26 16:15:20.770 ,2,1,0.,24.0,0.,24.0,0.,24.0,0.,24.0
1981-08-26 16:15:44.770 ,2,0,0.,24.0,0.,24.0,0.,24.0,0.,24.0
1981-08-26 16:16:08.770 ,1,1,0.,24.0,0.,24.0,0.,24.0,0.,24.0
1981-08-26 16:16:32.770 ,1,0,0.,24.0,0.,24.0,0.,24.0,0.,24.0
1981-08-26 16:16:56.770 ,0,1,0.,24.0,0.,24.0,0.,24.0,0.,24.0
1981-08-26 16:17:20.770 ,0,0,0.,24.0,0.,24.0,0.,24.0,0.,24.0
1981-08-26 16:17:44.770 ,0,1,0.,24.0,0.,24.0,0.,24.0,0.,24.0
1981-08-26 16:18:08.770 ,0,0,0.,24.0,0.,24.0,0.,24.0,0.,24.0
1981-08-26 16:18:32.770 ,1,1,0.,24.0,0.,24.0,0.,24.0,0.,24.0
1981-08-26 16:18:56.770 ,1,0,0.,24.0,0.,24.0,0.,24.0,0.,24.0
1981-08-26 16:19:20.770 ,2,1,0.,24.0,0.,24.0,0.,24.0,0.,24.0
1981-08-26 16:19:44.770 ,2,0,0.,24.0,0.,24.0,0.,24.0,0.,24.0
1981-08-26 16:20:08.770 ,3,1,0.,24.0,0.,24.0,0.,24.0,0.,24.0
1981-08-26 16:20:32.770 ,3,0,0.,24.0,0.,24.0,0.,24.0,0.,24.0
1981-08-26 16:20:56.770 ,4,1,0.,24.0,0.,24.0,0.,24.0,0.,24.0
1981-08-26 16:21:20.770 ,4,0,0.,24.0,0.,24.0,0.,24.0,0.,24.0
1981-08-26 16:21:44.770 ,5,1,0.,24.0,0.,24.0,0.,24.0,0.,24.0
1981-08-26 16:22:08.770 ,5,0,0.,24.0,0.,24.0,0.,24.0,0.,24.0
1981-08-26 16:22:32.770 ,6,1,0.,24.0,0.,24.0,0.,24.0,0.,24.0
1981-08-26 16:22:56.770 ,6,0,0.,24.0,0.,24.0,0.,24.0,0.,24.0
1981-08-26 16:23:20.770 ,7,1,0.,24.0,0.,24.0,0.,24.0,0.,24.0
1981-08-26 16:23:44.770 ,7,0,0.,24.0,0.,24.0,0.,24.0,0.,24.0
1981-08-26 16:24:08.770 ,7,1,0.,24.0,0.,24.0,0.,24.0,0.,24.0
1981-08-26 16:24:32.770 ,7,0,0.,24.0,0.,24.0,0.,24.0,0.,24.0
1981-08-26 16:24:56.770 ,6,1,0.,24.0,0.,24.0,0.,24.0,0.,24.0
1981-08-26 16:25:20.770 ,6,0,0.,24.0,0.,24.0,0.,24.0,0.,24.0
1981-08-26 16:25:44.770 ,5,1,0.,24.0,0.,24.0,0.,24.0,0.,24.0
1981-08-26 16:26:08.770 ,5,0,0.,24.0,0.,24.0,0.,24.0,0.,24.0
1981-08-26 16:26:32.770 ,4,1,0.,24.0,0.,24.0,0.,24.0,0.,24.0
1981-08-26 16:26:56.770 ,4,0,0.,24.0,0.,24.0,0.,24.0,0.,24.0
1981-08-26 16:27:20.770 ,3,1,0.,24.0,0.,24.0,0.,24.0,0.,24.0
1981-08-26 16:27:44.770 ,3,0,0.,24.0,0.,24.0,0.,24.0,0.,24.0
1981-08-26 16:28:08.770 ,2,1,0.,24.0,0.,24.0,0.,24.0,0.,24.0
1981-08-26 16:28:32.770 ,2,0,0.,24.0,0.,24.0,0.,24.0,0.,24.0
1981-08-26 16:28:56.770 ,1,1,0.,24.0,0.,24.0,0.,24.0,0.,24.0
1981-08-26 16:29:20.770 ,1,0,0.,24.0,0.,24.0,0.,24.0,0.,24.0
1981-08-26 16:29:44.770 ,0,1,0.,24.0,0.,24.0,0.,24.0,0.,24.0
1981-08-26 16:30:08.770 ,0,0,0.,24.0,0.,24.0,0.,24.0,0.,24.0
1981-08-26 16:30:32.770 ,0,1,0.,24.0,0.,24.0,0.,24.0,0.,24.0
1981-08-26 16:30:56.770 ,0,0,0.,24.0,0.,24.0,0.,24.0,0.,24.0
1981-08-26 16:31:20.770 ,1,1,0.,24.0,0.,24.0,0.,24.0,0.,24.0
1981-08-26 16:31:44.770 ,1,0,0.,24.0,0.,24.0,0.,24.0,0.,24.0
1981-08-26 16:32:08.770 ,2,1,0.,24.0,0.,24.0,0.,24.0,0.,24.0
1981-08-26 16:32:32.770 ,2,0,0.,24.0,0.,24.0,0.,24.0,0.,24.0
1981-08-26 16:32:56.770 ,3,1,0.,24.0,0.,24.0,0.,24.0,0.,24.0
1981-08-26 16:33:20.770 ,3,0,0.,24.0,0.,24.0,0.,24.0,0.,24.0
1981-08-26 16:33:44.770 ,4,1,0.,24.0,0.,24.0,0.,24.0,0.,24.0
1981-08-26 16:34:08.760 ,4,0,0.,24.0,0.,24.0,0.,24.0,0.,24.0
1981-08-26 16:34:32.760 ,5,1,0.,24.0,0.,24.0,0.,24.0,0.,24.0
1981-08-26 16:34:56.760 ,5,0,0.,24.0,0.,24.0,0.,24.0,0.,24.0
1981-08-26 16:35:20.760 ,6,1,0.,24.0,0.,24.0,0.,24.0,0.,24.0
1981-08-26 16:35:44.760 ,6,0,0.,24.0,0.,24.0,0.,24.0,0.,24.0
1981-08-26 16:36:08.760 ,7,1,0.,24.0,0.,24.0,0.,24.0,0.,24.0
1981-08-26 16:36:32.760 ,7,0,0.,24.0,0.,24.0,0.,24.0,0.,24.0
1981-08-26 16:36:56.760 ,7,1,0.,24.0,0.,24.0,0.,24.0,0.,24.0
1981-08-26 16:37:20.760 ,7,0,0.,24.0,0.,24.0,0.,24.0,0.,24.0
1981-08-26 16:37:44.760 ,6,1,0.,24.0,0.,24.0,0.,24.0,0.,24.0
1981-08-26 16:38:08.760 ,6,0,0.,24.0,0.,24.0,0.,24.0,0.,24.0
1981-08-26 16:38:32.760 ,5,1,0.,24.0,0.,24.0,0.,24.0,0.,24.0
1981-08-26 16:38:56.760 ,5,0,0.,24.0,0.,24.0,0.,24.0,0.,24.0
1981-08-26 16:39:20.760 ,4,1,0.,24.0,0.,24.0,0.,24.0,0.,24.0
1981-08-26 16:39:44.760 ,4,0,0.,24.0,0.,24.0,0.,24.0,0.,24.0
1981-08-26 16:40:08.760 ,3,1,0.,24.0,0.,24.0,0.,24.0,0.,24.0
1981-08-26 16:40:32.760 ,3,0,0.,24.0,0.,24.0,0.,24.0,0.,24.0
1981-08-26 16:40:56.760 ,2,1,0.,24.0,0.,24.0,0.,24.0,0.,24.0
1981-08-26 16:41:20.760 ,2,0,0.,24.0,0.,24.0,0.,24.0,0.,24.0
1981-08-26 16:41:44.760 ,1,1,0.,24.0,0.,24.0,0.,24.0,0.,24.0
1981-08-26 16:42:08.760 ,1,0,0.,24.0,0.,24.0,0.,24.0,0.,24.0
1981-08-26 16:42:32.760 ,0,1,0.,24.0,0.,24.0,0.,24.0,0.,24.0
1981-08-26 16:42:56.760 ,0,0,0.,24.0,0.,24.0,0.,24.0,0.,24.0
1981-08-26 16:43:20.760 ,0,1,0.,24.0,0.,24.0,0.,24.0,0.,24.0
1981-08-26 16:43:44.760 ,0,0,0.,24.0,0.,24.0,0.,24.0,0.,24.0
1981-08-26 16:44:08.760 ,1,1,0.,24.0,0.,24.0,0.,24.0,0.,24.0
1981-08-26 16:44:32.760 ,1,0,0.,24.0,0.,24.0,0.,24.0,0.,24.0
1981-08-26 16:44:56.760 ,2,1,0.,24.0,0.,24.0,0.,24.0,0.,24.0
1981-08-26 16:45:20.760 ,2,0,0.,24.0,0.,24.0,0.,24.0,0.,24.0
1981-08-26 16:45:44.760 ,3,1,0.,24.0,0.,24.0,0.,24.0,0.,24.0
1981-08-26 16:46:08.760 ,3,0,0.,24.0,0.,24.0,0.,24.0,0.,24.0
1981-08-26 16:46:32.760 ,4,1,0.,24.0,0.,24.0,0.,24.0,0.,24.0
1981-08-26 16:46:56.760 ,4,0,0.,24.0,0.,24.0,0.,24.0,0.,24.0
1981-08-26 16:47:20.760 ,5,1,0.,24.0,0.,24.0,0.,24.0,0.,24.0
1981-08-26 16:47:44.760 ,5,0,0.,24.0,0.,24.0,0.,24.0,0.,24.0
1981-08-26 16:48:08.760 ,6,1,0.,24.0,0.,24.0,0.,24.0,0.,24.0
1981-08-26 16:48:32.760 ,6,0,0.,24.0,0.,24.0,0.,24.0,0.,24.0
1981-08-26 16:48:56.760 ,0,0,,0,,0,,0,,0
1981-08-26 16:49:20.760 ,0,0,,0,,0,,0,,0
1981-08-26 16:49:20.760 ,7,0,0.,24.0,0.,24.0,0.,24.0,0.,24.0
1981-08-26 16:49:44.760 ,7,1,0.,24.0,0.,24.0,0.,24.0,0.,24.0
1981-08-26 16:50:08.760 ,7,0,0.,24.0,0.,24.0,0.,24.0,0.,24.0
1981-08-26 16:50:32.760 ,6,1,0.,24.0,0.,24.0,0.,24.0,0.,24.0
1981-08-26 16:50:56.760 ,6,0,0.,24.0,0.,24.0,0.,24.0,0.,24.0
1981-08-26 16:51:20.760 ,5,1,0.,24.0,0.,24.0,0.,24.0,0.,24.0
1981-08-26 16:51:44.760 ,5,0,0.,24.0,0.,24.0,0.,24.0,0.,24.0
1981-08-26 16:52:08.760 ,4,1,0.,24.0,0.,24.0,0.,24.0,0.,24.0
1981-08-26 16:52:32.760 ,4,0,0.,24.0,0.,24.0,0.,24.0,0.,24.0
1981-08-26 16:52:56.760 ,3,1,0.,24.0,0.,24.0,0.,24.0,0.,24.0
1981-08-26 16:53:20.760 ,3,0,0.,24.0,0.,24.0,0.,24.0,0.,24.0
1981-08-26 16:53:44.760 ,2,1,0.,24.0,0.,24.0,0.,24.0,0.,24.0
1981-08-26 16:54:08.760 ,2,0,0.,24.0,0.,24.0,0.,24.0,0.,24.0
1981-08-26 16:54:32.760 ,1,1,0.,24.0,0.,24.0,0.,24.0,0.,24.0
1981-08-26 16:54:56.760 ,1,0,0.,24.0,0.,24.0,0.,24.0,0.,24.0
1981-08-26 16:55:20.760 ,0,0,,0,,0,,0,,0
1981-08-26 16:55:44.760 ,0,0,0.,24.0,0.,24.0,0.,24.0,0.,24.0
1981-08-26 16:56:08.760 ,0,1,0.,24.0,0.,24.0,0.,24.0,0.,24.0
1981-08-26 16:56:32.760 ,0,0,0.,24.0,0.,24.0,0.,24.0,0.,24.0
1981-08-26 16:56:56.760 ,1,1,0.,24.0,0.,24.0,0.,24.0,0.,24.0
1981-08-26 16:57:20.760 ,1,0,0.,24.0,0.,24.0,0.,24.0,0.,24.0
1981-08-26 16:57:44.760 ,2,1,0.,24.0,0.,24.0,0.,24.0,0.,24.0
1981-08-26 16:58:08.760 ,2,0,0.,24.0,0.,24.0,0.,24.0,0.,24.0
1981-08-26 16:58:32.760 ,3,1,0.,24.0,0.,24.0,0.,24.0,0.,24.0
1981-08-26 16:58:56.760 ,3,0,0.,24.0,0.,24.0,0.,24.0,0.,24.0
1981-08-26 16:59:20.760 ,4,1,0.,24.0,0.,24.0,0.,24.0,0.,24.0
1981-08-26 16:59:44.760 ,4,0,0.,24.0,0.,24.0,0.,24.0,0.,24.0
1981-08-26 17:00:08.760 ,5,1,0.,24.0,0.,24.0,0.,24.0,0.,24.0
1981-08-26 17:00:32.760 ,5,0,0.,24.0,0.,24.0,0.,24.0,0.,24.0
1981-08-26 17:00:56.760 ,6,1,0.,24.0,0.,24.0,0.,24.0,0.,24.0
1981-08-26 17:01:20.760 ,6,0,0.,24.0,0.,24.0,0.,24.0,0.,24.0
1981-08-26 17:01:44.760 ,7,1,0.,24.0,0.,24.0,0.,24.0,0.,24.0
1981-08-26 17:02:08.760 ,7,0,0.,24.0,0.,24.0,0.,24.0,0.,24.0
1981-08-26 17:02:32.760 ,7,1,0.,24.0,0.,24.0,0.,24.0,0.,24.0
1981-08-26 17:02:56.760 ,7,0,0.,24.0,0.,24.0,0.,24.0,0.,24.0
1981-08-26 17:03:20.760 ,6,1,0.,24.0,0.,24.0,0.,24.0,0.,24.0
1981-08-26 17:03:44.760 ,6,0,0.,24.0,0.,24.0,0.,24.0,0.,24.0
1981-08-26 17:04:08.760 ,5,1,0.,24.0,0.,24.0,0.,24.0,0.,24.0
1981-08-26 17:04:32.760 ,5,0,0.,24.0,0.,24.0,0.,24.0,0.,24.0
1981-08-26 17:04:56.760 ,4,1,0.,24.0,0.,24.0,0.,24.0,0.,24.0
1981-08-26 17:05:20.760 ,4,0,0.,24.0,0.,24.0,0.,24.0,0.,24.0
1981-08-26 17:05:44.760 ,3,1,0.,24.0,0.,24.0,0.,24.0,0.,24.0
1981-08-26 17:06:08.760 ,3,0,0.,24.0,0.,24.0,0.,24.0,0.,24.0
1981-08-26 17:06:32.760 ,2,1,0.,24.0,0.,24.0,0.,24.0,0.,24.0
1981-08-26 17:06:56.760 ,2,0,0.,24.0,0.,24.0,0.,24.0,0.,24.0
1981-08-26 17:07:20.760 ,1,1,0.,24.0,0.,24.0,0.,24.0,0.,24.0
1981-08-26 17:07:44.760 ,1,0,0.,24.0,0.,24.0,0.,24.0,0.,24.0
1981-08-26 17:08:08.760 ,0,1,0.,24.0,0.,24.0,0.,24.0,0.,24.0
1981-08-26 17:08:32.760 ,0,0,0.,24.0,0.,24.0,0.,24.0,0.,24.0
1981-08-26 17:08:56.760 ,0,1,0.,24.0,0.,24.0,0.,24.0,0.,24.0
1981-08-26 17:09:20.760 ,0,0,0.,24.0,0.,24.0,0.,24.0,0.,24.0
1981-08-26 17:09:44.760 ,1,1,0.,24.0,0.,24.0,0.,24.0,0.,24.0
1981-08-26 17:10:08.760 ,1,0,0.,24.0,0.,24.0,0.,24.0,0.,24.0
1981-08-26 17:10:32.760 ,2,1,0.,24.0,0.,24.0,0.,24.0,0.,24.0
1981-08-26 17:10:56.760 ,2,0,0.,24.0,0.,24.0,0.,24.0,0.,24.0
1981-08-26 17:11:20.760 ,3,1,0.,24.0,0.,24.0,0.,24.0,0.,24.0
1981-08-26 17:11:44.760 ,3,0,0.,24.0,0.,24.0,0.,24.0,0.,24.0
1981-08-26 17:12:08.760 ,4,1,0.,24.0,0.,24.0,0.,24.0,0.,24.0
1981-08-26 17:12:32.760 ,4,0,0.,24.0,0.,24.0,0.,24.0,0.,24.0
1981-08-26 17:12:56.760 ,5,1,0.,24.0,0.,24.0,0.,24.0,0.,24.0
1981-08-26 17:13:20.760 ,5,0,0.,24.0,0.,24.0,0.,24.0,0.,24.0
1981-08-26 17:13:44.760 ,6,1,0.,24.0,0.,24.0,0.,24.0,0.,24.0
1981-08-26 17:14:08.760 ,0,0,0.,24.0,0.,24.0,0.,24.0,0.,24.0
1981-08-26 17:14:54.360 ,0,0,,0,,0,,0,,0
1981-08-26 17:14:56.760 ,0,0,0.,24.0,0.,24.0,0.,24.0,0.,24.0
1981-08-26 17:15:20.760 ,7,1,0.,24.0,0.,24.0,0.,24.0,0.,24.0
1981-08-26 17:15:44.760 ,7,0,0.,24.0,0.,24.0,0.,24.0,0.,24.0
1981-08-26 17:16:08.760 ,6,1,0.,24.0,0.,24.0,0.,24.0,0.,24.0
1981-08-26 17:16:32.760 ,6,0,0.,24.0,0.,24.0,0.,24.0,0.,24.0
1981-08-26 17:16:56.760 ,5,1,0.,24.0,0.,24.0,0.,24.0,0.,24.0
1981-08-26 17:17:20.760 ,5,0,0.,24.0,0.,24.0,0.,24.0,0.,24.0
1981-08-26 17:17:44.760 ,4,1,0.,24.0,0.,24.0,0.,24.0,0.,24.0
1981-08-26 17:18:08.760 ,4,0,0.,24.0,0.,24.0,0.,24.0,0.,24.0
1981-08-26 17:18:32.760 ,3,1,0.,24.0,0.,24.0,0.,24.0,0.,24.0
1981-08-26 17:18:56.760 ,3,0,0.,24.0,0.,24.0,0.,24.0,0.,24.0
1981-08-26 17:19:20.760 ,2,1,0.,24.0,0.,24.0,0.,24.0,0.,24.0
1981-08-26 17:19:44.760 ,2,0,0.,24.0,0.,24.0,0.,24.0,0.,24.0
1981-08-26 17:20:08.760 ,1,1,0.,24.0,0.,24.0,0.,24.0,0.,24.0
1981-08-26 17:20:32.760 ,1,0,0.,24.0,0.,24.0,0.,24.0,0.,24.0
1981-08-26 17:20:56.760 ,0,1,0.,24.0,0.,24.0,0.,24.0,0.,24.0
1981-08-26 17:21:20.760 ,0,0,0.,24.0,0.,24.0,0.,24.0,0.,24.0
1981-08-26 17:21:44.760 ,0,1,0.,24.0,0.,24.0,0.,24.0,0.,24.0
1981-08-26 17:22:08.760 ,0,0,0.,24.0,0.,24.0,0.,24.0,0.,24.0
1981-08-26 17:22:32.760 ,1,1,0.,24.0,0.,24.0,0.,24.0,0.,24.0
1981-08-26 17:22:56.760 ,1,0,0.,24.0,0.,24.0,0.,24.0,0.,24.0
1981-08-26 17:23:20.760 ,2,1,0.,24.0,0.,24.0,0.,24.0,0.,24.0
1981-08-26 17:23:44.760 ,2,0,0.,24.0,0.,24.0,0.,24.0,0.,24.0
1981-08-26 17:24:08.760 ,3,1,0.,24.0,0.,24.0,0.,24.0,0.,24.0
1981-08-26 17:24:32.760 ,3,0,0.,24.0,0.,24.0,0.,24.0,0.,24.0
1981-08-26 17:24:56.760 ,4,1,0.,24.0,0.,24.0,0.,24.0,0.,24.0
1981-08-26 17:25:20.760 ,4,0,0.,24.0,0.,24.0,0.,24.0,0.,24.0
1981-08-26 17:25:44.760 ,5,1,0.,24.0,0.,24.0,0.,24.0,0.,24.0
1981-08-26 17:26:08.760 ,5,0,0.,24.0,0.,24.0,0.,24.0,0.,24.0
1981-08-26 17:26:32.760 ,6,1,0.,24.0,0.,24.0,0.,24.0,0.,24.0
1981-08-26 17:26:56.760 ,6,0,0.,24.0,0.,24.0,0.,24.0,0.,24.0
1981-08-26 17:27:20.760 ,7,1,0.,24.0,0.,24.0,0.,24.0,0.,24.0
1981-08-26 17:27:44.760 ,7,0,0.,24.0,0.,24.0,0.,24.0,0.,24.0
1981-08-26 17:28:08.760 ,7,1,0.,24.0,0.,24.0,0.,24.0,0.,24.0
1981-08-26 17:28:32.760 ,7,0,0.,24.0,0.,24.0,0.,24.0,0.,24.0
1981-08-26 17:28:56.760 ,6,1,0.,24.0,0.,24.0,0.,24.0,0.,24.0
1981-08-26 17:29:20.760 ,6,0,0.,24.0,0.,24.0,0.,24.0,0.,24.0
1981-08-26 17:29:44.760 ,5,1,0.,24.0,0.,24.0,0.,24.0,0.,24.0
1981-08-26 17:30:08.760 ,5,0,0.,24.0,0.,24.0,0.,24.0,0.,24.0
1981-08-26 17:30:32.760 ,4,1,0.,24.0,0.,24.0,0.,24.0,0.,24.0
1981-08-26 17:30:56.760 ,4,0,0.,24.0,0.,24.0,0.,24.0,0.,24.0
1981-08-26 17:31:20.760 ,3,1,0.,24.0,0.,24.0,0.,24.0,0.,24.0
1981-08-26 17:31:44.760 ,3,0,0.,24.0,0.,24.0,0.,24.0,0.,24.0
1981-08-26 17:32:08.760 ,2,1,0.,24.0,0.,24.0,0.,24.0,0.,24.0
1981-08-26 17:32:32.760 ,2,0,0.,24.0,0.,24.0,0.,24.0,0.,24.0
1981-08-26 17:32:56.760 ,1,1,0.,24.0,0.,24.0,0.,24.0,0.,24.0
1981-08-26 17:33:20.760 ,1,0,0.,24.0,0.,24.0,0.,24.0,0.,24.0
1981-08-26 17:33:44.760 ,0,1,0.,24.0,0.,24.0,0.,24.0,0.,24.0
1981-08-26 17:34:08.760 ,0,0,0.,24.0,0.,24.0,0.,24.0,0.,24.0
1981-08-26 17:34:32.760 ,0,1,0.,24.0,0.,24.0,0.,24.0,0.,24.0
1981-08-26 17:34:56.760 ,0,0,0.,24.0,0.,24.0,0.,24.0,0.,24.0
1981-08-26 17:35:20.760 ,1,1,0.,24.0,0.,24.0,0.,24.0,0.,24.0
1981-08-26 17:35:44.760 ,1,0,0.,24.0,0.,24.0,0.,24.0,0.,24.0
1981-08-26 17:36:08.760 ,2,1,0.,24.0,0.,24.0,0.,24.0,0.,24.0